Terug naar catalogus

STARLINK-5067

ActiefCommunicatieVLEO
NORAD 55653·PAYLOAD·🇺🇸 United States

Gelanceerd Feb 17, 2023 vanaf Vandenberg Space Force Base

Loading…

Volgende Passages (komende 24 uur)

TLE

VersSource: CelesTrak SupGP

Epoch: Sep 15, 2026, 01:48 UTC

1 55653C 23021AB  26258.07548611 -.00053864  00000+0 -45146-2 0  2584
2 55653  70.0007  66.7786 0002605 271.3159  90.0493 14.98353545    14

Volg STARLINK-5067 in realtime met AllMySat

Download on the App Store